Greenland, New Hampshire, United States (03840)
Lat: 43.04N, Lon: 70.83W
Wx Zone: NHZ014
Local Info
Past Weather Observations for Friday, February 27, 2015

NOTE: This archive is for the closest National Weather Service station to Greenland. Information may differ from the station used for current weather conditions.

Click here for Long-term Archive

Time Weather Temperature Dewpoint Humidity Pressure Winds Precip Visibility
23:58
Clear
10°F / -12°C -8°F / -22°C 44% 30.51 in
(1033 mb)
SSW 6.9 mph
(SSW 11 kph)
- 10SM
22:58
Clear
10°F / -12°C -8°F / -22°C 44% 30.48 in
(1032 mb)
W 5.8 mph
(W 9 kph)
- 10SM
21:58
Clear
14°F / -10°C -8°F / -22°C 37% 30.48 in
(1032 mb)
SSW 8.1 mph
(SSW 13 kph)
- 10SM
20:58
Clear
16°F / -9°C -8°F / -22°C 34% 30.45 in
(1031 mb)
NW 6.9 mph
(NW 11 kph)
- 10SM
19:58
Clear
16°F / -9°C -6°F / -21°C 37% 30.42 in
(1030 mb)
NW 6.9 mph
(NW 11 kph)
- 10SM
18:58
Clear
19°F / -7°C -6°F / -21°C 32% 30.39 in
(1029 mb)
W 4.6 mph
(W 7 kph)
- 10SM
17:58
Clear
21°F / -6°C -8°F / -22°C 27% 30.36 in
(1028 mb)
SSW 3.5 mph
(SSW 6 kph)
- 10SM
16:58
Partly Cloudy
25°F / -4°C -6°F / -21°C 26% 30.33 in
(1027 mb)
SSW 8.1 mph
(SSW 13 kph)
- 10SM
15:58
Partly Cloudy
25°F / -4°C -6°F / -21°C 26% 30.33 in
(1027 mb)
SSW 8.1 mph
(SSW 13 kph)
- 10SM
14:58
Partly Cloudy
25°F / -4°C -6°F / -21°C 26% 30.3 in
(1026 mb)
SW 4.6 mph
(SW 7 kph)
- 10SM
13:58
Partly Cloudy
25°F / -4°C -2°F / -19°C 30% 30.3 in
(1026 mb)
NNW 9.2 mph
(NNW 15 kph)
- 10SM
12:58
Partly Cloudy
23°F / -5°C -6°F / -21°C 28% 30.3 in
(1026 mb)
SSW 6.9 mph
(SSW 11 kph)
- 10SM
11:58
Partly Cloudy
21°F / -6°C -6°F / -21°C 30% 30.33 in
(1027 mb)
Variable 3.5 mph
(Variable 6 kph)
- 10SM
10:58
Clear
18°F / -8°C -6°F / -21°C 35% 30.33 in
(1027 mb)
SW 5.8 mph
(SW 9 kph)
- 10SM
09:58
Clear
16°F / -9°C -4°F / -20°C 41% 30.33 in
(1027 mb)
N 2.3 mph
(N 4 kph)
- 10SM
08:58
Partly Cloudy
12°F / -11°C -4°F / -20°C 48% 30.33 in
(1027 mb)
NW 8.1 mph
(NW 13 kph)
- 10SM
07:58
Partly Cloudy
9°F / -13°C -8°F / -22°C 47% 30.3 in
(1026 mb)
NW 8.1 mph
(NW 13 kph)
- 10SM
06:58
Partly Cloudy
9°F / -13°C -8°F / -22°C 47% 30.27 in
(1025 mb)
W 5.8 mph
(W 9 kph)
- 10SM
05:58
Overcast
10°F / -12°C -8°F / -22°C 44% 30.24 in
(1024 mb)
WNW 5.8 mph
(WNW 9 kph)
- 10SM
04:58
Mostly Cloudy
10°F / -12°C -8°F / -22°C 44% 30.21 in
(1023 mb)
W 4.6 mph
(W 7 kph)
- 10SM
03:58
Mostly Cloudy
12°F / -11°C -6°F / -21°C 44% 30.18 in
(1022 mb)
WNW 6.9 mph
(WNW 11 kph)
- 10SM
02:58
Mostly Cloudy
14°F / -10°C -4°F / -20°C 44% 30.15 in
(1021 mb)
W 5.8 mph
(W 9 kph)
- 10SM
01:58
Mostly Cloudy
16°F / -9°C °F / -18°C 48% 30.12 in
(1020 mb)
W 5.8 mph
(W 9 kph)
- 10SM
00:58
Overcast
14°F / -10°C 5°F / -15°C 67% 30.12 in
(1020 mb)
SSW 4.6 mph
(SSW 7 kph)
- 10SM
Time Weather Temperature Dewpoint Humidity Pressure Winds Precip Visibility


Weather for websites

WeatherForYou.com, LLC is not responsible for any damages or problems caused by this service. Current weather conditions are obtained from the closest station including government and personal stations which may have varying degrees of accuracy. Weather forecasts are derived from the NOAA NDFD. Like all things, this site belongs to Jesus Christ... He just trusts me to maintain it. If you have any questions or comments email webmaster@weatherforyou.com

Copyright © 2015, WeatherForYou.com LLC. All rights reserved.